Marshfield, MA

12:43 PM EDT on September 18, 2019 (GMT -0400)
Marshfield

Weather History for KGHG - July, 2019

Change the Weather History Date:

Thursday, July 11, 2019

  Actual Average (KPYM) Record (KPYM)
Temperature  
Mean Temperature 76 °F -  
Max Temperature 86 °F 82 °F 93 °F (1948)
Min Temperature 66 °F 60 °F 47 °F (1986)
Cooling Degree Days 11    
Growing Degree Days 26 (Base 50)    
Moisture  
Dew Point 68 °F    
Average Humidity 79    
Maximum Humidity 100    
Minimum Humidity 48    
Precipitation  
Precipitation 0.00 in - - ()
Sea Level Pressure  
Sea Level Pressure 29.94 in    
Wind  
Wind Speed 6 mph (SSW)    
Max Wind Speed 16 mph    
Max Gust Speed 24 mph    
Visibility 9 miles    
Events      
Averages and records for this station are not official NWS values.
T = Trace of Precipitation, MM = Missing Value Source: NWS Daily Summary

Daily Weather History Graph

Daily Weather History Graph

Search for Another Location

Airport or City:

Astronomy

Jul. 11, 2019 Rise Set
Actual Time 5:16 AM EDT 8:19 PM EDT
Civil Twilight 4:43 AM EDT 8:52 PM EDT
Nautical Twilight 3:59 AM EDT 9:35 PM EDT
Astronomical Twilight 3:09 AM EDT 10:26 PM EDT
Moon 3:26 PM EDT (7/11) 1:29 AM EDT (7/11)
Length of Visible Light 16h 09m
Length of Day
15h 02m
Waxing Gibbous, 74% of the Moon is Illuminated
Jul 11
Waxing Gibbous
Jul 16
Full
Jul 24
Last Quarter
Jul 31
New
Aug 7
First Quarter

Hourly Weather History & Observations

Time (EDT) Temp. Heat Index Dew Point Humidity Pressure Visibility Wind Dir Wind Speed Gust Speed Precip Events Conditions
12:15 AM 71.6 °F - 68.0 °F 88% 29.98 in 10.0 mi WSW 3.5 mph - N/A   Clear
12:35 AM 71.6 °F - 68.0 °F 88% 29.98 in 10.0 mi SW 5.8 mph - N/A   Clear
12:55 AM 71.6 °F - 68.0 °F 88% 29.98 in 10.0 mi SW 4.6 mph - N/A   Clear
1:15 AM 69.8 °F - 68.0 °F 94% 29.98 in 10.0 mi WSW 4.6 mph - N/A   Clear
1:35 AM 69.8 °F - 68.0 °F 94% 29.98 in 10.0 mi WSW 5.8 mph - N/A   Clear
1:55 AM 69.8 °F - 68.0 °F 94% 29.98 in 10.0 mi WSW 4.6 mph - N/A   Clear
2:15 AM 69.8 °F - 68.0 °F 94% 29.97 in 10.0 mi WSW 5.8 mph - N/A   Clear
2:35 AM 69.8 °F - 69.8 °F 100% 29.97 in 10.0 mi WSW 4.6 mph - N/A   Clear
2:55 AM 69.8 °F - 69.8 °F 100% 29.97 in 10.0 mi WSW 4.6 mph - N/A   Clear
3:15 AM 69.8 °F - 69.8 °F 100% 29.97 in 8.0 mi Calm Calm - N/A   Clear
3:35 AM 69.8 °F - 69.8 °F 100% 29.98 in 9.0 mi Calm Calm - N/A   Clear
3:55 AM 68.0 °F - 68.0 °F 100% 29.98 in 7.0 mi Calm Calm - N/A   Clear
4:15 AM 68.0 °F - 68.0 °F 100% 29.98 in 5.0 mi Calm Calm - N/A   Clear
4:35 AM 68.0 °F - 68.0 °F 100% 29.98 in 1.2 mi Calm Calm - N/A   Clear
4:55 AM 68.0 °F - 68.0 °F 100% 29.98 in 5.0 mi Calm Calm - N/A   Clear
5:15 AM 68.0 °F - 68.0 °F 100% 29.99 in 4.0 mi WSW 3.5 mph - N/A   Clear
5:35 AM 66.2 °F - 66.2 °F 100% 29.99 in 1.5 mi Calm Calm - N/A   Clear
5:55 AM 68.0 °F - 68.0 °F 100% 29.99 in 2.0 mi SW 3.5 mph - N/A   Clear
6:15 AM 68.0 °F - 68.0 °F 100% 29.99 in 2.5 mi WSW 3.5 mph - N/A   Clear
6:35 AM 68.0 °F - 68.0 °F 100% 30.00 in 2.5 mi Calm Calm - N/A   Clear
6:55 AM 69.8 °F - 69.8 °F 100% 30.00 in 2.0 mi Calm Calm - N/A   Mostly Cloudy
7:15 AM 69.8 °F - 69.8 °F 100% 30.00 in 1.8 mi Calm Calm - N/A   Overcast
7:35 AM 69.8 °F - 69.8 °F 100% 30.00 in 2.5 mi Calm Calm - N/A   Overcast
7:55 AM 71.6 °F - 71.6 °F 100% 30.01 in 3.0 mi Calm Calm - N/A   Overcast
8:15 AM 73.4 °F - 71.6 °F 94% 30.01 in 5.0 mi SSE 4.6 mph - N/A   Overcast
8:35 AM 73.4 °F - 71.6 °F 94% 30.00 in 10.0 mi South 5.8 mph - N/A   Overcast
8:55 AM 73.4 °F - 71.6 °F 94% 30.00 in 7.0 mi SE 8.1 mph - N/A   Overcast
9:35 AM 77.0 °F - 71.6 °F 83% 29.99 in 10.0 mi Variable 6.9 mph - N/A   Unknown
9:55 AM 77.0 °F - 71.6 °F 83% 29.98 in 10.0 mi South 9.2 mph - N/A   Unknown
10:15 AM 78.8 °F - 73.4 °F 83% 29.98 in 10.0 mi South 8.1 mph - N/A   Scattered Clouds
10:35 AM 80.6 °F 84.6 °F 71.6 °F 74% 29.97 in 10.0 mi South 8.1 mph - N/A   Mostly Cloudy
10:55 AM 80.6 °F 84.6 °F 71.6 °F 74% 29.97 in 10.0 mi South 9.2 mph - N/A   Mostly Cloudy
11:15 AM 82.4 °F 87.2 °F 71.6 °F 70% 29.96 in 10.0 mi South 10.4 mph - N/A   Scattered Clouds
11:35 AM 82.4 °F 87.2 °F 71.6 °F 70% 29.96 in 10.0 mi South 8.1 mph 15.0 mph N/A   Mostly Cloudy
11:55 AM 82.4 °F 87.2 °F 71.6 °F 70% 29.96 in 10.0 mi South 11.5 mph - N/A   Mostly Cloudy
12:15 PM 82.4 °F 86.3 °F 69.8 °F 66% 29.95 in 10.0 mi South 10.4 mph - N/A   Overcast
12:35 PM 84.2 °F 88.4 °F 69.8 °F 62% 29.95 in 10.0 mi SSW 8.1 mph 15.0 mph N/A   Mostly Cloudy
12:55 PM 84.2 °F 87.3 °F 68.0 °F 58% 29.95 in 10.0 mi SSW 13.8 mph 19.6 mph N/A   Partly Cloudy
1:15 PM 84.2 °F 87.3 °F 68.0 °F 58% 29.94 in 10.0 mi SSW 10.4 mph 21.9 mph N/A   Clear
1:35 PM 84.2 °F 86.6 °F 66.2 °F 55% 29.93 in 10.0 mi SSW 15.0 mph - N/A   Partly Cloudy
1:55 PM 84.2 °F 85.6 °F 64.4 °F 51% 29.93 in 10.0 mi South 12.7 mph 21.9 mph N/A   Partly Cloudy
2:15 PM 86.0 °F 87.3 °F 64.4 °F 48% 29.93 in 10.0 mi SSW 11.5 mph 19.6 mph N/A   Partly Cloudy
2:35 PM 84.2 °F 85.0 °F 62.6 °F 48% 29.93 in 10.0 mi South 16.1 mph 23.0 mph N/A   Partly Cloudy
2:55 PM 84.2 °F 85.0 °F 62.6 °F 48% 29.93 in 10.0 mi SSW 12.7 mph 21.9 mph N/A   Partly Cloudy
3:15 PM 82.4 °F 83.9 °F 64.4 °F 54% 29.93 in 10.0 mi SSW 9.2 mph 20.7 mph N/A   Partly Cloudy
3:35 PM 82.4 °F 84.6 °F 66.2 °F 58% 29.92 in 10.0 mi SSW 13.8 mph 20.7 mph N/A   Partly Cloudy
3:55 PM 82.4 °F 84.6 °F 66.2 °F 58% 29.92 in 10.0 mi SSW 13.8 mph 21.9 mph N/A   Partly Cloudy
4:15 PM 80.6 °F 82.7 °F 66.2 °F 61% 29.91 in 10.0 mi South 10.4 mph 18.4 mph N/A   Partly Cloudy
4:35 PM 80.6 °F 82.7 °F 66.2 °F 61% 29.91 in 10.0 mi South 15.0 mph 24.2 mph N/A   Partly Cloudy
4:55 PM 80.6 °F 82.7 °F 66.2 °F 61% 29.90 in 10.0 mi SSW 12.7 mph 19.6 mph N/A   Clear
5:15 PM 80.6 °F 81.8 °F 62.6 °F 54% 29.90 in 10.0 mi SSW 13.8 mph 20.7 mph N/A   Scattered Clouds
5:35 PM 80.6 °F 81.8 °F 62.6 °F 54% 29.90 in 10.0 mi South 12.7 mph 19.6 mph N/A   Scattered Clouds
5:55 PM 80.6 °F 81.8 °F 62.6 °F 54% 29.89 in 10.0 mi SSW 9.2 mph 17.3 mph N/A   Scattered Clouds
6:15 PM 78.8 °F - 62.6 °F 57% 29.89 in 10.0 mi SSW 8.1 mph 17.3 mph N/A   Clear
6:35 PM 78.8 °F - 62.6 °F 57% 29.89 in 10.0 mi SSW 9.2 mph - N/A   Clear
6:55 PM 77.0 °F - 64.4 °F 65% 29.89 in 10.0 mi SSW 8.1 mph 13.8 mph N/A   Clear
7:15 PM 77.0 °F - 64.4 °F 65% 29.88 in 10.0 mi South 9.2 mph - N/A   Clear
7:35 PM 77.0 °F - 64.4 °F 65% 29.88 in 10.0 mi South 11.5 mph 18.4 mph N/A   Clear
7:55 PM 75.2 °F - 68.0 °F 78% 29.88 in 10.0 mi South 8.1 mph 15.0 mph N/A   Clear
8:15 PM 75.2 °F - 68.0 °F 78% 29.89 in 10.0 mi SSW 8.1 mph 16.1 mph N/A   Clear
8:35 PM 75.2 °F - 68.0 °F 78% 29.88 in 10.0 mi SSW 8.1 mph - N/A   Clear
8:55 PM 75.2 °F - 69.8 °F 83% 29.88 in 10.0 mi South 8.1 mph 13.8 mph N/A   Clear
9:15 PM 73.4 °F - 68.0 °F 83% 29.88 in 10.0 mi Variable 6.9 mph 15.0 mph N/A   Clear
9:35 PM 73.4 °F - 68.0 °F 83% 29.88 in 10.0 mi South 6.9 mph - N/A   Clear
9:55 PM 73.4 °F - 68.0 °F 83% 29.88 in 10.0 mi South 6.9 mph - N/A   Clear
10:15 PM 73.4 °F - 68.0 °F 83% 29.88 in 10.0 mi Variable 6.9 mph - N/A   Clear
10:35 PM 73.4 °F - 68.0 °F 83% 29.88 in 10.0 mi Variable 5.8 mph 11.5 mph N/A   Partly Cloudy
10:55 PM 73.4 °F - 68.0 °F 83% 29.87 in 10.0 mi South 10.4 mph - N/A   Mostly Cloudy
11:15 PM 73.4 °F - 68.0 °F 83% 29.86 in 10.0 mi South 8.1 mph - N/A   Mostly Cloudy
11:35 PM 73.4 °F - 68.0 °F 83% 29.85 in 10.0 mi South 8.1 mph - N/A   Scattered Clouds
11:55 PM 73.4 °F - 68.0 °F 83% 29.84 in 10.0 mi Variable 5.8 mph - N/A   Partly Cloudy